EW9968 Weather Reports


Display with metric or nautical units.
time (UTC)temp
F
wind
direction
speed
MPH
gust
MPH
rain 1hr
in
rain 24hr
in
rain mn
in
humidity
%
barometer
mb
20260509070040 0 0.0 0.0 0.00 0.00 0.00 1013.8
20260509064536 0 0.0 0.0 0.00 0.00 0.00 1013.8
20260509063033 0 0.0 0.0 0.00 0.00 0.00 1013.7
20260509061527 0 0.0 0.0 0.00 0.00 0.00 1013.7
20260509060025 0 0.0 0.0 0.00 0.00 0.00 1013.7
20260509054525 0 0.0 0.0 0.00 0.00 0.00 1013.7
20260509053030 0 0.0 0.0 0.00 0.00 0.00 1013.9
20260509051516 0 0.0 0.0 0.00 0.00 0.00 1013.8
20260509050020 0 0.0 0.0 0.00 0.00 0.00 1013.6
20260509044501 0 0.0 0.0 0.00 0.00 0.00 1013.8
20260509043058 0 0.0 0.0 0.00 0.00 0.00 1013.7
20260509041552 0 200 0.0 0.0 0.00 0.00 0.00 1013.6
20260509040108 40 200 0.0 0.0 0.00 0.00 0.00 80 1013.4
20260509034604 41 200 0.0 0.0 0.00 0.00 0.00 79 1013.3
20260509033048 41 200 0.0 0.0 0.00 0.00 0.00 78 1013.3
20260509031546 42 200 0.0 0.0 0.00 0.00 0.00 77 1013.4
20260509030046 42 200 0.0 0.0 0.00 0.00 0.00 76 1013.1
20260509024545 43 200 0.0 0.0 0.00 0.00 0.00 75 1013.0
20260509023048 43 200 0.0 0.0 0.00 0.00 0.00 73 1012.9
20260509021543 44 200 0.0 0.0 0.00 0.00 0.00 72 1013.0
20260509020045 45 200 0.0 0.0 0.00 0.00 0.00 70 1012.5
20260509014540 46 200 0.0 0.0 0.00 0.00 0.00 67 1012.3
20260509013042 46 200 0.0 0.0 0.00 0.00 0.00 63 1012.0
20260509011536 47 200 0.0 0.0 0.00 0.00 0.00 62 1011.9
20260509010034 48 200 0.0 0.0 0.00 0.00 0.00 60 1011.6
20260509004539 49 200 0.0 0.0 0.00 0.00 0.00 57 1011.3
20260509003044 51 200 0.0 0.0 0.00 0.00 0.00 54 1011.0
20260509001527 52 200 0.0 0.0 0.00 0.00 0.00 51 1010.5
20260509000026 53 255 0.0 0.0 0.00 0.00 0.00 49 1010.4
20260508234527 54 359 0.0 0.0 0.00 0.00 0.00 46 1010.0
20260508233023 55 252 0.0 0.0 0.00 0.00 0.00 45 1009.8
20260508231523 55 282 0.0 0.0 0.00 0.00 0.00 44 1009.6
20260508230026 56 228 0.0 0.0 0.00 0.00 0.00 42 1009.3
20260508224520 56 253 0.0 0.0 0.00 0.00 0.00 44 1009.2
20260508223021 57 252 0.0 0.0 0.00 0.00 0.00 42 1009.1
20260508221522 57 275 0.0 0.0 0.00 0.00 0.00 41 1009.0
20260508220019 57 281 0.0 0.0 0.00 0.00 0.00 41 1009.1
20260508214519 57 266 0.0 0.0 0.00 0.00 0.00 40 1009.1
20260508213018 58 262 0.0 0.0 0.00 0.00 0.00 40 1008.9
20260508211524 58 179 0.0 5.0 0.00 0.00 0.00 38 1008.9
20260508210018 58 250 0.0 0.0 0.00 0.00 0.00 38 1008.8
20260508204516 58 51 0.0 1.0 0.00 0.00 0.00 40 1008.9
20260508203017 59 309 0.0 6.0 0.00 0.00 0.00 39 1008.8
20260508201515 59 264 0.0 4.0 0.00 0.00 0.00 39 1008.6
20260508200016 60 230 0.0 0.0 0.00 0.00 0.00 39 1008.5
20260508194513 60 244 0.0 0.0 0.00 0.00 0.00 40 1008.6
20260508193012 60 234 0.0 7.0 0.00 0.00 0.00 40 1008.6
20260508191511 60 63 1.0 5.0 0.00 0.00 0.00 40 1008.6
20260508190012 60 307 0.0 1.0 0.00 0.00 0.00 39 1008.6
20260508184511 60 295 0.0 0.0 0.00 0.00 0.00 39 1008.7
20260508183010 59 292 0.0 0.0 0.00 0.00 0.00 39 1008.6
20260508181510 59 168 1.0 8.0 0.00 0.00 0.00 38 1008.5
20260508180010 60 266 2.0 7.0 0.00 0.00 0.00 37 1008.4
20260508174521 60 274 0.0 0.0 0.00 0.00 0.00 39 1008.4
20260508173010 60 238 1.0 5.0 0.00 0.00 0.00 39 1008.5
20260508171508 60 141 0.0 6.0 0.00 0.00 0.00 41 1008.5
20260508170009 59 257 0.0 0.0 0.00 0.00 0.00 40 1008.7
20260508164506 58 284 0.0 0.0 0.00 0.00 0.00 40 1008.6
20260508163016 59 258 1.0 8.0 0.00 0.00 0.00 39 1008.7
20260508161505 61 210 0.0 0.0 0.00 0.00 0.00 39 1008.8
20260508160005 60 265 0.0 0.0 0.00 0.00 0.00 40 1008.8
20260508154502 59 264 0.0 0.0 0.00 0.00 0.00 39 1008.9
20260508153059 59 239 0.0 1.0 0.00 0.00 0.00 41 1009.1
20260508153001 59 236 0.0 1.0 0.00 0.00 0.00 41 1009.1
20260508151557 59 290 0.0 0.0 0.00 0.00 0.00 43 1009.1
20260508150057 58 285 0.0 3.0 0.00 0.00 0.00 41 1009.1
20260508144554 58 262 0.0 2.0 0.00 0.00 0.00 42 1009.3
20260508143053 57 281 0.0 0.0 0.00 0.00 0.00 40 1009.2
20260508141555 58 107 0.0 0.0 0.00 0.00 0.00 43 1009.2
20260508140052 56 264 0.0 0.0 0.00 0.00 0.00 42 1009.7
20260508134549 57 219 0.0 0.0 0.00 0.00 0.00 43 1009.7
20260508133049 56 248 0.0 0.0 0.00 0.00 0.00 44 1009.6
20260508131554 55 196 0.0 0.0 0.00 0.00 0.00 45 1009.7
20260508130058 56 229 0.0 0.0 0.00 0.00 0.00 46 1009.9
20260508124543 55 150 0.0 0.0 0.00 0.00 0.00 50 1009.9
20260508123040 54 293 0.0 0.0 0.00 0.00 0.00 50 1010.0
20260508121535 51 301 0.0 0.0 0.00 0.00 0.00 55 1010.0
20260508120031 50 48 0.0 0.0 0.00 0.00 0.00 57 1010.1
20260508114526 48 219 0.0 0.0 0.00 0.00 0.00 65 1010.0
20260508113025 44 338 0.0 0.0 0.00 0.00 0.00 68 1009.7
20260508111518 43 241 0.0 0.0 0.00 0.00 0.00 73 1009.6
20260508110014 40 222 0.0 0.0 0.00 0.00 0.00 77 1009.6
20260508104510 39 222 0.0 0.0 0.00 0.00 0.00 79 1009.6
20260508103006 0 0.0 0.0 0.00 0.00 0.00 1009.3
20260508101508 0 0.0 0.0 0.00 0.00 0.00 1009.2
20260508100159 0 0.0 0.0 0.00 0.00 0.00 1009.0
20260508094556 0 0.0 0.0 0.00 0.00 0.00 1008.9
20260508093057 0 0.0 0.0 0.00 0.00 0.00 1008.8
20260508091544 0 0.0 0.0 0.00 0.00 0.00 1009.0
20260508084535 0 0.0 0.0 0.00 0.00 0.00 1008.6
20260508083031 0 0.0 0.0 0.00 0.00 0.00 1008.6
20260508081527 0 0.0 0.0 0.00 0.00 0.00 1008.5
20260508080033 0 0.0 0.0 0.00 0.00 0.00 1008.3
20260508074522 0 0.0 0.0 0.00 0.00 0.00 1007.8
20260508073014 0 0.0 0.0 0.00 0.00 0.00 1007.7
20260508071510 0 0.0 0.0 0.00 0.00 0.00 1007.5